Content
SEND FEEDBACK

Daily
Averages
Monthly
Summary
United States of America

KEENE, NEW HAMPSHIRE


Home > North America > United States > New Hampshire
Elevation: 482 feet     Latitude: 42 54N     Longitude: 072 16W

WEATHER
 
SELECT A DAY
Number of Records: 445,295;   Date Range: 1/1/95 - 7/23/14
 
SHARE

PRINT THIS DATA

[ ← Previous Day ]
WEATHER ALMANAC - APRIL 1, 2014
[ Next Day → ]
[ °C ]   °F
Weather ElementAverageHighLow
Temperature39.7 °F53.6 °F (4:35 pm)28.4 °F (6:15 am)
Dewpoint24.2 °F28.4 °F (3:55 pm)19.4 °F (4:35 am)
Humidity55.2 %70 % (9:55 pm)35 % (4:55 pm)
Barometer30.06 in30.11 in (8:55 am)30.01 in (5:35 pm)
Wind Speed5.3 mph17.3 mph (2:35 am)
Wind Gust19.6 mph (2:55 am)
Weather ElementAverage
Visibility10 mi
Wind DirectionSSE (158.9 °)

Weather ElementTotal
Precipitation---
Heating Degree Days24 (Base 65)
Averaged from 71 records on April 1, 2014
WEATHER CONDITIONS BREAKOUT
WIND DIRECTION BREAKOUT
WEATHER BY HOUR - APRIL 1, 2014
[ °C ]   °F
Local TimeTemperatureDewpointHumidityBarometerVisibilityWind DirectionWind SpeedGust SpeedPrecipitationEventsConditions
12:35 AM35.6 °F21.2 °F56 %30.06 in10.0 miNorth (10°)10.4 mphClear
12:55 AM35.6 °F21.2 °F56 %30.06 in10.0 miNorth (360°)9.2 mph17.3 mphClear
1:15 AM35.6 °F21.2 °F56 %30.06 in10.0 miNorth (360°)11.5 mphClear
1:35 AM33.8 °F21.2 °F60 %30.06 in10.0 miNorth (10°)11.5 mphClear
1:55 AM33.8 °F21.2 °F60 %30.06 in10.0 miNorth (350°)10.4 mphClear
2:15 AM33.8 °F21.2 °F60 %30.06 in10.0 miNorth (350°)13.8 mphClear
2:35 AM33.8 °F21.2 °F60 %30.06 in10.0 miNorth (350°)17.3 mphClear
2:55 AM33.8 °F21.2 °F60 %30.07 in10.0 miNorth (350°)13.8 mph19.6 mphClear
3:15 AM33.8 °F21.2 °F60 %30.06 in10.0 miNorth (360°)12.7 mphClear
3:35 AM32.0 °F21.2 °F64 %30.06 in10.0 miNorth (360°)12.7 mphClear
3:55 AM32.0 °F21.2 °F64 %30.06 in10.0 miNorth (360°)11.5 mphClear
4:15 AM32.0 °F21.2 °F64 %30.06 in10.0 miNorth (360°)11.5 mphClear
4:35 AM32.0 °F19.4 °F60 %30.07 in10.0 miNorth (360°)11.5 mphClear
4:55 AM30.2 °F21.2 °F69 %30.07 in10.0 miNorth (10°)11.5 mph17.3 mphClear
5:15 AM30.2 °F19.4 °F64 %30.07 in10.0 miNorth (10°)9.2 mphClear
5:35 AM30.2 °F19.4 °F64 %30.07 in10.0 miNorth (10°)8.1 mphClear
5:55 AM30.2 °F19.4 °F64 %30.07 in10.0 miCalmClear
6:15 AM28.4 °F19.4 °F69 %30.07 in10.0 miCalmClear
6:35 AM30.2 °F19.4 °F64 %30.08 in10.0 miCalmClear
6:55 AM28.4 °F19.4 °F69 %30.08 in10.0 miCalmClear
7:15 AM30.2 °F19.4 °F64 %30.08 in10.0 miCalmClear
7:35 AM30.2 °F21.2 °F69 %30.09 in10.0 miNNE (20°)4.6 mphClear
7:55 AM32.0 °F21.2 °F64 %30.10 in10.0 miNorth (350°)9.2 mphClear
8:15 AM33.8 °F21.2 °F60 %30.10 in10.0 miNorth (350°)10.4 mphClear
8:35 AM33.8 °F21.2 °F60 %30.10 in10.0 miNorth (350°)11.5 mphClear
8:55 AM35.6 °F21.2 °F56 %30.11 in10.0 miNorth (360°)11.5 mph16.1 mphClear
9:15 AM35.6 °F21.2 °F56 %30.11 in10.0 miNorth (350°)10.4 mphClear
9:35 AM35.6 °F21.2 °F56 %30.11 in10.0 miNNW (340°)10.4 mphClear
9:55 AM37.4 °F21.2 °F52 %30.10 in10.0 miNorth (350°)10.4 mphClear
10:15 AM37.4 °F23.0 °F56 %30.10 in10.0 miNNW (340°)8.1 mphClear
10:35 AM39.2 °F23.0 °F52 %30.10 in10.0 miNorth (350°)6.9 mphClear
10:55 AM39.2 °F21.2 °F49 %30.09 in10.0 miNorth (360°)6.9 mphClear
11:15 AM42.8 °F23.0 °F46 %30.09 in10.0 miNorth (360°)8.1 mphClear
11:35 AM42.8 °F24.8 °F49 %30.08 in10.0 miCalmClear
11:55 AM44.6 °F24.8 °F46 %30.08 in10.0 miNW (320°)6.9 mphClear
12:15 PM44.6 °F24.8 °F46 %30.07 in10.0 miNW (310°)8.1 mphClear
12:35 PM44.6 °F24.8 °F46 %30.07 in10.0 miWest (260°)4.6 mphClear
12:55 PM46.4 °F26.6 °F46 %30.06 in10.0 miNNW (330°)6.9 mphClear
1:15 PM46.4 °F26.6 °F46 %30.06 in10.0 miNNW (330°)3.5 mphClear
1:35 PM46.4 °F26.6 °F46 %30.05 in10.0 miNNW (330°)6.9 mphClear
1:55 PM48.2 °F26.6 °F43 %30.05 in10.0 miCalmClear
2:15 PM48.2 °F26.6 °F43 %30.04 in10.0 miNNW (340°)6.9 mphClear
2:35 PM50.0 °F26.6 °F40 %30.03 in10.0 miCalmClear
2:55 PM50.0 °F26.6 °F40 %30.03 in10.0 miCalmClear
3:15 PM51.8 °F26.6 °F38 %30.02 in10.0 miCalmClear
3:35 PM51.8 °F26.6 °F38 %30.02 in10.0 miCalmClear
3:55 PM51.8 °F28.4 °F41 %30.02 in10.0 miNNW (330°)4.6 mphClear
4:15 PM51.8 °F28.4 °F41 %30.02 in10.0 miCalmClear
4:35 PM53.6 °F28.4 °F38 %30.02 in10.0 miNorth (360°)8.1 mphClear
4:55 PM53.6 °F26.6 °F35 %30.02 in10.0 miNorth (360°)5.8 mphClear
5:15 PM53.6 °F26.6 °F35 %30.02 in10.0 miNE (50°)5.8 mphClear
5:35 PM53.6 °F26.6 °F35 %30.01 in10.0 miNE (50°)3.5 mphClear
5:55 PM53.6 °F26.6 °F35 %30.01 in10.0 miNNE (30°)4.6 mphClear
6:15 PM51.8 °F26.6 °F38 %30.01 in10.0 miNNE (30°)3.5 mphClear
6:35 PM48.2 °F28.4 °F46 %30.01 in10.0 miCalmClear
6:55 PM44.6 °F28.4 °F53 %30.01 in10.0 miCalmClear
7:15 PM42.8 °F28.4 °F57 %30.01 in10.0 miCalmClear
7:35 PM41.0 °F28.4 °F61 %30.02 in10.0 miCalmClear
7:55 PM41.0 °F28.4 °F61 %30.03 in10.0 miCalmClear
8:15 PM39.2 °F26.6 °F61 %30.04 in10.0 miCalmClear
8:35 PM39.2 °F28.4 °F65 %30.05 in10.0 miCalmClear
8:55 PM37.4 °F26.6 °F65 %30.06 in10.0 miCalmClear
9:15 PM37.4 °F26.6 °F65 %30.06 in10.0 miCalmClear
9:35 PM39.2 °F28.4 °F65 %30.06 in10.0 miCalmClear
9:55 PM37.4 °F28.4 °F70 %30.06 in10.0 miCalmClear
10:15 PM37.4 °F28.4 °F70 %30.08 in10.0 miCalmClear
10:35 PM37.4 °F26.6 °F65 %30.08 in10.0 miCalmClear
10:55 PM37.4 °F26.6 °F65 %30.07 in10.0 miCalmClear
11:15 PM37.4 °F26.6 °F65 %30.08 in10.0 miCalmClear
11:35 PM35.6 °F26.6 °F70 %30.08 in10.0 miCalmClear
11:55 PM35.6 °F26.6 °F70 %30.08 in10.0 miCalmClear
Hourly data recorded from KEEN, located miles away from Keene, New Hampshire







STORIES FROM OUR PARTNERS